• en France
  • Liste des pays
  • À 7 jours
  • Température de l'eau
  • Carte satellitaire
  • Carte météo
  • Widgets météo
  • user-avatar
    Se connecter

    Météo par heure à Puerto-Inirida

    Ce jour, 18 Février, Dimanche

    Heure Température Précipitation Vent Pression Humidité
    00:00 +24°C° 0,4 mm 0 m/s 750 mmHg 94%
    01:00 +23°C° 0,4 mm 0 m/s 750 mmHg 95%
    02:00 +23°C° 0,4 mm 0 m/s 750 mmHg 94%
    03:00 +23°C° 0,4 mm 0 m/s 750 mmHg 94%
    04:00 +23°C° 0,4 mm 0 m/s 749 mmHg 93%
    05:00 +23°C° 0,3 mm 0 m/s 750 mmHg 93%
    06:00 +23°C° 0,3 mm 0 m/s 750 mmHg 93%
    07:00 +24°C° 0,3 mm 0 m/s 751 mmHg 93%
    08:00 +26°C° 0,2 mm 0 m/s 751 mmHg 82%
    09:00 +28°C° 0,2 mm 0 m/s 751 mmHg 71%
    10:00 +31°C° 0,2 mm 0 m/s 751 mmHg 61%
    11:00 +32°C° 0 mm 0 m/s 750 mmHg 55%
    12:00 +35°C° 0 mm 1 m/s 749 mmHg 48%
    13:00 +37°C° 0 mm 1 m/s 748 mmHg 42%
    14:00 +36°C° 0 mm 1 m/s 747 mmHg 45%
    15:00 +35°C° 0 mm 1 m/s 747 mmHg 48%
    16:00 +35°C° 0 mm 1 m/s 746 mmHg 51%
    17:00 +33°C° 0 mm 1 m/s 746 mmHg 58%
    18:00 +31°C° 0 mm 1 m/s 747 mmHg 65%
    19:00 +27°C° 0 mm 0 m/s 747 mmHg 72%
    20:00 +26°C° 0,2 mm 0 m/s 747 mmHg 75%
    21:00 +25°C° 0,2 mm 0 m/s 748 mmHg 78%
    22:00 +25°C° 0,2 mm 0 m/s 748 mmHg 80%
    23:00 +24°C° 0,2 mm 0 m/s 748 mmHg 81%

    Demain, 19 Février, Lundi

    Heure Température Précipitation Vent Pression Humidité
    00:00 +24°C° 0,2 mm 0 m/s 748 mmHg 82%
    01:00 +24°C° 0,2 mm 0 m/s 748 mmHg 83%
    02:00 +23°C° 0 mm 0 m/s 748 mmHg 84%
    03:00 +23°C° 0 mm 0 m/s 748 mmHg 84%
    04:00 +23°C° 0 mm 0 m/s 747 mmHg 84%
    05:00 +23°C° 0 mm 0 m/s 748 mmHg 83%
    06:00 +24°C° 0 mm 0 m/s 749 mmHg 81%
    07:00 +24°C° 0 mm 0 m/s 749 mmHg 79%
    08:00 +29°C° 0 mm 1 m/s 749 mmHg 68%
    09:00 +31°C° 0 mm 1 m/s 750 mmHg 57%
    10:00 +33°C° 0 mm 1 m/s 750 mmHg 47%
    11:00 +35°C° 0 mm 1 m/s 749 mmHg 44%
    12:00 +36°C° 0 mm 1 m/s 748 mmHg 41%
    13:00 +37°C° 0 mm 1 m/s 747 mmHg 38%
    14:00 +37°C° 0 mm 2 m/s 747 mmHg 40%
    15:00 +37°C° 0 mm 2 m/s 746 mmHg 41%
    16:00 +36°C° 0 mm 2 m/s 746 mmHg 43%
    17:00 +33°C° 0 mm 1 m/s 746 mmHg 50%
    18:00 +31°C° 0 mm 1 m/s 747 mmHg 57%
    19:00 +28°C° 0 mm 1 m/s 747 mmHg 64%
    20:00 +28°C° 0 mm 1 m/s 747 mmHg 64%
    21:00 +27°C° 0 mm 1 m/s 748 mmHg 65%
    22:00 +24°C° 0 mm 0 m/s 748 mmHg 65%
    23:00 +26°C° 0 mm 1 m/s 748 mmHg 66%

    Après-demain, 20 Février, Mardi

    Heure Température Précipitation Vent Pression Humidité
    00:00 +25°C° 0 mm 1 m/s 748 mmHg 66%
    01:00 +25°C° 0 mm 1 m/s 747 mmHg 67%
    02:00 +24°C° 0 mm 1 m/s 747 mmHg 68%
    03:00 +22°C° 0 mm 0 m/s 747 mmHg 69%
    04:00 +22°C° 0 mm 0 m/s 747 mmHg 70%
    05:00 +22°C° 0 mm 0 m/s 748 mmHg 69%
    06:00 +25°C° 0 mm 1 m/s 749 mmHg 68%
    07:00 +25°C° 0 mm 1 m/s 750 mmHg 67%
    08:00 +28°C° 0 mm 1 m/s 750 mmHg 59%
    09:00 +31°C° 0 mm 1 m/s 750 mmHg 50%
    10:00 +33°C° 0 mm 1 m/s 751 mmHg 42%
    11:00 +34°C° 0 mm 1 m/s 750 mmHg 40%
    12:00 +35°C° 0 mm 1 m/s 749 mmHg 38%
    13:00 +37°C° 0 mm 1 m/s 748 mmHg 36%
    14:00 +37°C° 0 mm 2 m/s 747 mmHg 37%
    15:00 +37°C° 0 mm 2 m/s 747 mmHg 39%
    16:00 +36°C° 0 mm 2 m/s 747 mmHg 40%
    17:00 +33°C° 0 mm 1 m/s 747 mmHg 47%
    18:00 +31°C° 0 mm 1 m/s 748 mmHg 55%
    19:00 +26°C° 0 mm 0 m/s 748 mmHg 62%
    20:00 +28°C° 0 mm 1 m/s 749 mmHg 63%
    21:00 +27°C° 0 mm 1 m/s 749 mmHg 65%
    22:00 +27°C° 0 mm 1 m/s 749 mmHg 66%
    23:00 +26°C° 0 mm 1 m/s 749 mmHg 67%

    21 Février, Mercredi

    Heure Température Précipitation Vent Pression Humidité
    00:00 +25°C° 0 mm 1 m/s 749 mmHg 68%
    01:00 +25°C° 0 mm 1 m/s 748 mmHg 70%
    02:00 +24°C° 0 mm 1 m/s 748 mmHg 70%
    03:00 +24°C° 0 mm 1 m/s 749 mmHg 71%
    04:00 +24°C° 0 mm 1 m/s 749 mmHg 72%
    05:00 +24°C° 0 mm 1 m/s 749 mmHg 70%
    06:00 +25°C° 0 mm 1 m/s 750 mmHg 69%
    07:00 +24°C° 0 mm 0 m/s 751 mmHg 67%
    08:00 +28°C° 0 mm 1 m/s 751 mmHg 59%
    09:00 +31°C° 0 mm 1 m/s 751 mmHg 50%
    10:00 +34°C° 0 mm 1 m/s 751 mmHg 41%
    11:00 +35°C° 0 mm 1 m/s 750 mmHg 38%
    12:00 +36°C° 0 mm 1 m/s 750 mmHg 36%
    13:00 +39°C° 0 mm 1 m/s 749 mmHg 33%
    14:00 +37°C° 0 mm 1 m/s 748 mmHg 35%
    15:00 +37°C° 0 mm 1 m/s 748 mmHg 36%
    16:00 +36°C° 0 mm 1 m/s 747 mmHg 38%
    17:00 +34°C° 0 mm 1 m/s 747 mmHg 45%
    18:00 +31°C° 0 mm 1 m/s 748 mmHg 52%
    19:00 +29°C° 0 mm 1 m/s 748 mmHg 60%
    20:00 +28°C° 0 mm 1 m/s 749 mmHg 61%
    21:00 +27°C° 0 mm 1 m/s 749 mmHg 63%
    22:00 +27°C° 0 mm 1 m/s 749 mmHg 65%
    23:00 +24°C° 0 mm 0 m/s 749 mmHg 66%

    22 Février, Jeudi

    Heure Température Précipitation Vent Pression Humidité
    00:00 +23°C° 0 mm 0 m/s 749 mmHg 68%
    01:00 +23°C° 0 mm 0 m/s 749 mmHg 69%
    02:00 +23°C° 0 mm 0 m/s 749 mmHg 70%
    03:00 +22°C° 0 mm 0 m/s 749 mmHg 71%
    04:00 +24°C° 0 mm 1 m/s 749 mmHg 72%
    05:00 +23°C° 0 mm 0 m/s 749 mmHg 71%
    06:00 +23°C° 0 mm 0 m/s 750 mmHg 70%
    07:00 +24°C° 0 mm 0 m/s 751 mmHg 69%
    08:00 +29°C° 0 mm 1 m/s 751 mmHg 60%
    09:00 +31°C° 0 mm 1 m/s 751 mmHg 51%
    10:00 +34°C° 0 mm 1 m/s 751 mmHg 42%
    11:00 +35°C° 0 mm 1 m/s 750 mmHg 39%
    12:00 +37°C° 0 mm 1 m/s 749 mmHg 36%
    13:00 +39°C° 0 mm 1 m/s 748 mmHg 34%
    14:00 +37°C° 0 mm 1 m/s 748 mmHg 35%
    15:00 +37°C° 0 mm 1 m/s 747 mmHg 36%
    16:00 +37°C° 0 mm 2 m/s 747 mmHg 38%
    17:00 +34°C° 0 mm 1 m/s 747 mmHg 45%
    18:00 +32°C° 0 mm 1 m/s 748 mmHg 52%
    19:00 +27°C° 0 mm 0 m/s 748 mmHg 59%
    20:00 +27°C° 0 mm 0 m/s 748 mmHg 61%
    21:00 +26°C° 0 mm 0 m/s 749 mmHg 63%
    22:00 +27°C° 0 mm 1 m/s 749 mmHg 64%
    23:00 +27°C° 0 mm 1 m/s 749 mmHg 66%

    23 Février, Vendredi

    Heure Température Précipitation Vent Pression Humidité
    00:00 +26°C° 0 mm 1 m/s 749 mmHg 68%
    01:00 +26°C° 0 mm 1 m/s 748 mmHg 69%
    02:00 +24°C° 0 mm 0 m/s 748 mmHg 72%
    03:00 +23°C° 0 mm 0 m/s 748 mmHg 74%
    04:00 +23°C° 0 mm 0 m/s 748 mmHg 76%
    05:00 +23°C° 0 mm 0 m/s 749 mmHg 74%
    06:00 +24°C° 0 mm 0 m/s 749 mmHg 72%
    07:00 +25°C° 0 mm 0 m/s 750 mmHg 71%
    08:00 +28°C° 0 mm 0 m/s 750 mmHg 61%
    09:00 +33°C° 0 mm 1 m/s 750 mmHg 52%
    10:00 +35°C° 0 mm 1 m/s 750 mmHg 42%
    11:00 +37°C° 0 mm 1 m/s 749 mmHg 39%
    12:00 +39°C° 0 mm 1 m/s 748 mmHg 36%
    13:00 +40°C° 0 mm 1 m/s 748 mmHg 33%
    14:00 +39°C° 0 mm 1 m/s 747 mmHg 35%
    15:00 +37°C° 0 mm 1 m/s 746 mmHg 36%
    16:00 +37°C° 0 mm 1 m/s 746 mmHg 37%
    17:00 +34°C° 0 mm 1 m/s 746 mmHg 44%
    18:00 +32°C° 0 mm 1 m/s 747 mmHg 51%
    19:00 +28°C° 0 mm 0 m/s 747 mmHg 58%
    20:00 +27°C° 0 mm 0 m/s 748 mmHg 60%
    21:00 +26°C° 0 mm 0 m/s 748 mmHg 61%
    22:00 +26°C° 0 mm 0 m/s 748 mmHg 63%
    23:00 +25°C° 0 mm 0 m/s 748 mmHg 65%
    Voir plus